Showing default

TELSTAR 2 (A-41), 573

Orbit data source: Space-Track

TELSTAR 2 (A-41), 573 is a payload satellite owned by AT&T (US) in HEO that was launched on Tue, 07 May 1963 UTC via a THOR DELTA B launch vehicle from the Air Force Eastern Test Range (AFETR). Payload-class satellites include a variety of spacecraft equipped with specific instruments for various scientific and technological missions. These include communications satellites like Starlink; space stations such as the ISS; scientific satellites like the Hubble; Earth observation satellites from companies like Planet Labs, Umbra, and HawkEye 360; GPS; miniature CubeSats for education and research; and military/defense satellites.

Loading next visibility...
Identifier
573, 1963-013A
Orbit
HEO
Country
Flag of USUS
Related business
Manufacturer
AT&T/BTL
Mission
Spacecraft
Bus & Motor
TSX, Unknown motor
Mass
79 kg wet, 79 kg dry
Launch date (UTC)
1963-05-07 (63 years ago)
Launch vehicle
THOR DELTA B
Launch site
Air Force Eastern Test Range (AFETR)
Object type
Payload
Rocket body
Debris
Shape & HBR
Unknown
Radar Cross Section
Medium (>0.1 m² and <1 m²)

Expand to show TLE details & history
Last TLE update: 23 hours ago

TLE from 23 hours ago
0 TELSTAR 2 (A-41)
1   573U 63013A   26044.22227853 -.00000019  00000-0  26020-3 0  9999
2   573  42.7460 115.3093 4008490   0.0862   9.8545  6.39265237578221
Epoch: 2026-02-13T05:20Z
TLE epoch observation values (Epoch: 2026-02-13T05:20:04.864Z)
Latitude
16.56415°
Longitude
-89.3081°
Altitude
1,164.916 km
Speed
8.557 km/s
True Right ascension
08h 55m 53s
True Declination
16° 28' 32"
Sunlit
Object was in full shadow at epoch
Visualization orbit readout
Latitude
Unknown
Longitude
Unknown
Altitude
Unknown
Speed
Unknown
Apparent Right ascension
Unknown
Apparent Declination
Unknown
Sunlit
N/A
Visualization observer readout
Local Sidereal Time
07:04:54
Azimuth
Unknown
Elevation
Unknown
Doppler factor
Unknown
Orbital elements
Apogee altitude
10,803.207 km
Perigee altitude
970.421 km
Semi-major axis
12,264.951 km
Eccentricity
0.40085
Inclination
42.746°
RAAN
115.3093°
Arg. of periapsis
0.0862°
True anomaly
24.70474°
Mean anomaly
9.8545°
Eccentric anomaly
16.30091°
Mean motion
1.59788 °/min
Orbital period
225.3 mins
BSTAR
0.0002602
Loading maneuver chart data...
Computing Atmospheric mass density...
Loading historical data...
Loading historical data...
Loading historical data...
Loading historical data...
Loading historical data...
Loading historical data...
Loading historical data...
Other satellites on launch #13 in the year 1963 (1963-05-07 UTC)

Documentation

Showing up to 5 results
|